• In Latvia
  • List of Countries
  • For 7 days
  • Water Temperature
  • Satellite Maps
  • Weather Map
  • Weather Widgets
  • user-avatar
    Login

    Hourly Weather Lapusna

    Today, 17 October, Wednesday

    Time Temperature Precipitation Wind Pressure Humidity
    00:00 +16°C° 0 mm 1 mps 759 mmHg 55%
    01:00 +16°C° 0 mm 1 mps 759 mmHg 57%
    02:00 +15°C° 0 mm 1 mps 759 mmHg 59%
    03:00 +15°C° 0 mm 1 mps 758 mmHg 62%
    04:00 +15°C° 0 mm 1 mps 758 mmHg 64%
    05:00 +14°C° 0 mm 1 mps 758 mmHg 67%
    06:00 +15°C° 0 mm 1 mps 758 mmHg 65%
    07:00 +15°C° 0 mm 2 mps 758 mmHg 64%
    08:00 +16°C° 0 mm 2 mps 758 mmHg 62%
    09:00 +18°C° 0 mm 2 mps 758 mmHg 57%
    10:00 +20°C° 0 mm 3 mps 758 mmHg 51%
    11:00 +22°C° 0 mm 3 mps 758 mmHg 45%
    12:00 +24°C° 0 mm 3 mps 758 mmHg 43%
    13:00 +24°C° 0 mm 3 mps 758 mmHg 40%
    14:00 +25°C° 0 mm 3 mps 757 mmHg 37%
    15:00 +24°C° 0 mm 3 mps 757 mmHg 40%
    16:00 +22°C° 0 mm 3 mps 757 mmHg 44%
    17:00 +21°C° 0 mm 2 mps 757 mmHg 47%
    18:00 +20°C° 0 mm 2 mps 757 mmHg 51%
    19:00 +19°C° 0 mm 2 mps 757 mmHg 55%
    20:00 +19°C° 0 mm 1 mps 757 mmHg 58%
    21:00 +18°C° 0 mm 1 mps 757 mmHg 61%
    22:00 +18°C° 0 mm 1 mps 757 mmHg 63%
    23:00 +16°C° 0 mm 1 mps 757 mmHg 65%

    Tomorrow, 18 October, Thursday

    Time Temperature Precipitation Wind Pressure Humidity
    00:00 +16°C° 0 mm 1 mps 757 mmHg 66%
    01:00 +15°C° 0 mm 1 mps 757 mmHg 68%
    02:00 +15°C° 0 mm 1 mps 757 mmHg 70%
    03:00 +14°C° 0 mm 1 mps 756 mmHg 71%
    04:00 +14°C° 0 mm 1 mps 756 mmHg 72%
    05:00 +13°C° 0 mm 1 mps 756 mmHg 73%
    06:00 +14°C° 0 mm 2 mps 756 mmHg 70%
    07:00 +15°C° 0 mm 2 mps 756 mmHg 66%
    08:00 +15°C° 0 mm 2 mps 756 mmHg 63%
    09:00 +17°C° 0 mm 2 mps 756 mmHg 56%
    10:00 +19°C° 0 mm 3 mps 756 mmHg 49%
    11:00 +21°C° 0 mm 3 mps 756 mmHg 42%
    12:00 +22°C° 0 mm 3 mps 755 mmHg 39%
    13:00 +24°C° 0 mm 3 mps 755 mmHg 35%
    14:00 +24°C° 0 mm 3 mps 755 mmHg 32%
    15:00 +23°C° 0 mm 2 mps 754 mmHg 35%
    16:00 +21°C° 0 mm 2 mps 754 mmHg 37%
    17:00 +20°C° 0 mm 2 mps 754 mmHg 40%
    18:00 +20°C° 0 mm 1 mps 754 mmHg 42%
    19:00 +19°C° 0 mm 1 mps 754 mmHg 44%
    20:00 +18°C° 0 mm 1 mps 754 mmHg 47%
    21:00 +18°C° 0 mm 1 mps 754 mmHg 48%
    22:00 +16°C° 0 mm 0 mps 754 mmHg 49%
    23:00 +15°C° 0 mm 0 mps 754 mmHg 50%

    Day after tomorrow, 19 October, Friday

    Time Temperature Precipitation Wind Pressure Humidity
    00:00 +15°C° 0 mm 0 mps 754 mmHg 51%
    01:00 +15°C° 0 mm 0 mps 754 mmHg 51%
    02:00 +15°C° 0 mm 0 mps 754 mmHg 52%
    03:00 +16°C° 0 mm 1 mps 754 mmHg 52%
    04:00 +15°C° 0 mm 1 mps 754 mmHg 52%
    05:00 +15°C° 0 mm 1 mps 753 mmHg 52%
    06:00 +16°C° 0 mm 1 mps 754 mmHg 51%
    07:00 +16°C° 0 mm 1 mps 754 mmHg 50%
    08:00 +16°C° 0 mm 1 mps 754 mmHg 49%
    09:00 +19°C° 0 mm 1 mps 754 mmHg 45%
    10:00 +19°C° 0 mm 2 mps 754 mmHg 41%
    11:00 +21°C° 0 mm 2 mps 754 mmHg 37%
    12:00 +21°C° 0 mm 2 mps 753 mmHg 35%
    13:00 +23°C° 0 mm 2 mps 753 mmHg 33%
    14:00 +24°C° 0 mm 3 mps 753 mmHg 32%
    15:00 +23°C° 0 mm 2 mps 753 mmHg 34%
    16:00 +21°C° 0 mm 2 mps 753 mmHg 36%
    17:00 +20°C° 0 mm 2 mps 753 mmHg 39%
    18:00 +19°C° 0 mm 2 mps 753 mmHg 41%
    19:00 +18°C° 0 mm 2 mps 753 mmHg 43%
    20:00 +17°C° 0 mm 2 mps 754 mmHg 45%
    21:00 +17°C° 0 mm 2 mps 754 mmHg 48%
    22:00 +16°C° 0 mm 2 mps 754 mmHg 51%
    23:00 +15°C° 0 mm 2 mps 754 mmHg 54%

    20 October, Saturday

    Time Temperature Precipitation Wind Pressure Humidity
    00:00 +15°C° 0 mm 2 mps 754 mmHg 57%
    01:00 +15°C° 0 mm 2 mps 754 mmHg 59%
    02:00 +14°C° 0 mm 2 mps 754 mmHg 62%
    03:00 +13°C° 0 mm 3 mps 754 mmHg 64%
    04:00 +13°C° 0 mm 3 mps 754 mmHg 66%
    05:00 +13°C° 0 mm 3 mps 754 mmHg 68%
    06:00 +13°C° 0 mm 3 mps 755 mmHg 68%
    07:00 +14°C° 0 mm 3 mps 755 mmHg 67%
    08:00 +14°C° 0 mm 3 mps 755 mmHg 67%
    09:00 +15°C° 0 mm 4 mps 755 mmHg 64%
    10:00 +17°C° 0 mm 4 mps 755 mmHg 60%
    11:00 +18°C° 0 mm 4 mps 755 mmHg 57%
    12:00 +19°C° 0 mm 4 mps 755 mmHg 54%
    13:00 +19°C° 0 mm 4 mps 755 mmHg 51%
    14:00 +20°C° 0 mm 4 mps 755 mmHg 49%
    15:00 +19°C° 0 mm 4 mps 755 mmHg 51%
    16:00 +19°C° 0 mm 3 mps 755 mmHg 52%
    17:00 +18°C° 0 mm 3 mps 755 mmHg 54%
    18:00 +17°C° 0 mm 3 mps 755 mmHg 58%
    19:00 +17°C° 0 mm 3 mps 756 mmHg 61%
    20:00 +16°C° 0 mm 3 mps 756 mmHg 64%
    21:00 +14°C° 0 mm 3 mps 756 mmHg 68%
    22:00 +14°C° 0 mm 3 mps 756 mmHg 72%
    23:00 +13°C° 0 mm 3 mps 756 mmHg 76%

    21 October, Sunday

    Time Temperature Precipitation Wind Pressure Humidity
    00:00 +13°C° 0 mm 3 mps 756 mmHg 79%
    01:00 +12°C° 0 mm 3 mps 756 mmHg 82%
    02:00 +12°C° 0 mm 3 mps 756 mmHg 84%
    03:00 +12°C° 0 mm 3 mps 756 mmHg 86%
    04:00 +11°C° 0 mm 4 mps 756 mmHg 88%
    05:00 +11°C° 0 mm 4 mps 756 mmHg 90%
    06:00 +11°C° 0 mm 4 mps 756 mmHg 87%
    07:00 +12°C° 0 mm 4 mps 757 mmHg 84%
    08:00 +12°C° 0 mm 4 mps 757 mmHg 81%
    09:00 +13°C° 0 mm 4 mps 757 mmHg 73%
    10:00 +14°C° 0 mm 4 mps 757 mmHg 65%
    11:00 +17°C° 0 mm 4 mps 757 mmHg 57%
    12:00 +17°C° 0 mm 4 mps 756 mmHg 54%
    13:00 +17°C° 0 mm 5 mps 756 mmHg 51%
    14:00 +17°C° 0 mm 5 mps 756 mmHg 48%
    15:00 +17°C° 0 mm 4 mps 756 mmHg 49%
    16:00 +17°C° 0 mm 4 mps 756 mmHg 50%
    17:00 +16°C° 0 mm 3 mps 756 mmHg 52%
    18:00 +14°C° 0 mm 3 mps 757 mmHg 55%
    19:00 +13°C° 0 mm 3 mps 757 mmHg 58%
    20:00 +12°C° 0 mm 3 mps 757 mmHg 61%
    21:00 +11°C° 0 mm 3 mps 757 mmHg 62%
    22:00 +11°C° 0 mm 3 mps 757 mmHg 64%
    23:00 +10°C° 0 mm 3 mps 758 mmHg 66%

    22 October, Monday

    Time Temperature Precipitation Wind Pressure Humidity
    00:00 +10°C° 0 mm 3 mps 758 mmHg 67%
    01:00 +9°C° 0 mm 3 mps 758 mmHg 68%
    02:00 +9°C° 0 mm 3 mps 758 mmHg 69%
    03:00 +8°C° 0 mm 3 mps 758 mmHg 70%
    04:00 +8°C° 0 mm 3 mps 758 mmHg 71%
    05:00 +8°C° 0 mm 3 mps 758 mmHg 72%
    06:00 +8°C° 0 mm 3 mps 758 mmHg 70%
    07:00 +7°C° 0 mm 4 mps 758 mmHg 68%
    08:00 +8°C° 0 mm 4 mps 758 mmHg 66%
    09:00 +10°C° 0 mm 4 mps 758 mmHg 60%
    10:00 +12°C° 0 mm 4 mps 758 mmHg 53%
    11:00 +13°C° 0 mm 4 mps 758 mmHg 47%
    12:00 +14°C° 0 mm 4 mps 758 mmHg 45%
    13:00 +15°C° 0 mm 4 mps 757 mmHg 42%
    14:00 +15°C° 0 mm 4 mps 757 mmHg 40%
    15:00 +14°C° 0 mm 4 mps 757 mmHg 42%
    16:00 +14°C° 0 mm 3 mps 757 mmHg 44%
    17:00 +13°C° 0 mm 3 mps 757 mmHg 46%
    18:00 +12°C° 0 mm 3 mps 757 mmHg 48%
    19:00 +11°C° 0 mm 3 mps 757 mmHg 50%
    20:00 +10°C° 0 mm 2 mps 757 mmHg 53%
    21:00 +10°C° 0 mm 2 mps 757 mmHg 54%
    22:00 +9°C° 0 mm 2 mps 757 mmHg 55%
    23:00 +9°C° 0 mm 2 mps 757 mmHg 56%
    Show more